Location: Prague
(50.0830°N, 14.4670°E)
Time: 09:03:45
(UTC+02:00)

RS-15 - Pass Details

Date: 08 April 2023
Orbit: 1885 x 2159 km, 64.8° (Epoch: 29 May)

Event Time Altitude Azimuth Distance (km) Brightness Sun altitude
Rises 22:12:11 0° 312° (NW) 5,666 12.0 -21.6°
Reaches altitude 10° 22:15:47 10° 316° (NW) 4,641 11.2 -22.0°
Maximum altitude 22:27:51 64° 38° (NE) 2,242 8.3 -23.3°
Enters shadow 22:34:36 29° 110° (ESE) 3,170 8.6 -24.1°
